SL-12 R/B(2), 29673

Orbit data source: Space-Track

SL-12 R/B(2), 29673 is space debris in MEO originally from a launch on Mon, 25 Dec 2006 UTC launched from the Tyuratam Missile And Space Complex (TTMTR). Debris objects in space refer to the collection of defunct objects orbiting the Earth. Examples of debris include non-operational satellites, rocket bodies, and fragments generated from explosions, collisions, or faulty payload assembly.

Loading next visibility...
Identifier
29673, 2006-062D
Orbit
MEO
Country
Flag of CISCIS
Related business
Manufacturer
RKKE
Mission
Spacecraft
Bus & Motor
BLOK DM2, 11D58M
Mass
2,440 kg wet, 2,440 kg dry
Launch date (UTC)
2006-12-25 (19 years ago)
Launch vehicle
Unknown
Launch site
Tyuratam Missile And Space Complex (TTMTR)
Object type
Payload
Rocket body
Debris
Shape & HBR
Cyl, 3.1 m
Radar Cross Section
23.684 m², Large (>1 m²)

Expand to show TLE details & history
Last TLE update: 4 days ago

TLE from 4 days ago
0 SL-12 R/B(2)
1 29673U 06062D   26169.21296922  .00000056  00000-0  00000-0 0  9999
2 29673  64.7047 193.5857 0028500 194.4222 172.1031  2.13404146152013
Epoch: 2026-06-18T05:06Z
TLE epoch observation values (Epoch: 2026-06-18T05:06:40.540Z)
Latitude
5.90048°
Longitude
-146.74093°
Altitude
19,177.76 km
Speed
3.944 km/s
True Right ascension
13h 05m 33s
True Declination
5° 53' 26"
Sunlit
Object was in daylight at epoch
Visualization orbit readout
Latitude
Unknown
Longitude
Unknown
Altitude
Unknown
Speed
Unknown
Apparent Right ascension
Unknown
Apparent Declination
Unknown
Sunlit
N/A
Visualization observer readout
Local Sidereal Time
23:18:27
Azimuth
Unknown
Elevation
Unknown
Doppler factor
Unknown
Orbital elements
Apogee altitude
19,178.058 km
Perigee altitude
19,032.802 km
Semi-major axis
25,483.567 km
Eccentricity
0.00285
Inclination
64.7047°
RAAN
193.5857°
Arg. of periapsis
194.4222°
True anomaly
172.14781°
Mean anomaly
172.1031°
Eccentric anomaly
172.12547°
Mean motion
0.53352 °/min
Orbital period
674.76 mins
BSTAR
0
Loading maneuver chart data...
Computing Atmospheric mass density...
Loading historical data...
Loading historical data...
Loading historical data...
Loading historical data...
Loading historical data...
Loading historical data...
Loading historical data...

Documentation

Showing up to 5 results
|